Tracking 22836 objects as of 18-Apr-2021
HD Live streaming from Space Station
objects crossing your sky now

STARLINK-1306

Track STARLINK-1306 now!
10-day predictions
STARLINK-1306 is classified as:


NORAD ID: 45362
Int'l Code: 2020-019C
Perigee: 553.1 km
Apogee: 555.6 km
Inclination: 53.1 °
Period: 95.6 minutes
Semi major axis: 6925 km
RCS: Unknown
Launch date: March 18, 2020
Source: United States (US)
Launch site: AIR FORCE EASTERN TEST RANGE (AFETR)
aabbcc
Your satellite tracking list
Your tracking list is empty




NASA's NSSDC Master Catalog

Two Line Element Set (TLE):
1 45362U 20019C   21107.71918820  .00000921  00000-0  80705-4 0  9995
2 45362  53.0585 268.6332 0001804 102.2301 257.8890 15.06406596 60388
Source of the keplerian elements: AFSPC